Time,TemperatureF,DewpointF,PressureIn,WindDirection,WindDirectionDegrees,WindSpeedMPH,WindSpeedGustMPH,Humidity,HourlyPrecipIn,Conditions,Clouds,dailyrainin,SoftwareType,DateUTC
2013-04-29 00:03:00,56.0,53.0,29.84,WNW,298,0.0,2.0,91,0.00,,,0.00,,2013-04-29 04:03:00,
2013-04-29 00:13:00,56.0,53.0,29.84,WNW,298,0.0,2.0,91,0.00,,,0.00,,2013-04-29 04:13:00,
2013-04-29 00:23:00,56.0,54.0,29.85,WNW,298,0.0,1.0,92,0.00,,,0.00,,2013-04-29 04:23:00,
2013-04-29 00:33:00,56.0,54.0,29.84,WNW,298,0.0,1.0,92,0.00,,,0.00,,2013-04-29 04:33:00,
2013-04-29 00:43:00,56.0,54.0,29.84,WNW,298,0.0,1.0,92,0.00,,,0.00,,2013-04-29 04:43:00,
2013-04-29 00:52:00,56.0,54.0,29.84,WNW,298,0.0,0.0,92,0.00,,,0.00,,2013-04-29 04:52:00,
2013-04-29 01:02:00,56.0,54.0,29.85,WNW,298,0.0,0.0,93,0.00,,,0.00,,2013-04-29 05:02:00,
2013-04-29 01:12:00,56.0,54.0,29.85,WNW,298,0.0,0.0,93,0.00,,,0.00,,2013-04-29 05:12:00,
2013-04-29 01:32:00,55.0,53.0,29.85,WNW,298,0.0,0.0,93,0.00,,,0.00,,2013-04-29 05:32:00,
2013-04-29 01:42:00,55.0,53.0,29.85,WNW,298,0.0,0.0,93,0.00,,,0.00,,2013-04-29 05:42:00,
2013-04-29 01:52:00,55.0,53.0,29.85,WNW,298,0.0,0.0,93,0.00,,,0.00,,2013-04-29 05:52:00,
2013-04-29 02:02:00,55.0,53.0,29.85,WNW,298,0.0,0.0,93,0.00,,,0.00,,2013-04-29 06:02:00,
2013-04-29 02:11:00,55.0,53.0,29.85,WNW,298,0.0,0.0,93,0.00,,,0.00,,2013-04-29 06:11:00,
2013-04-29 02:21:00,54.0,52.0,29.85,WNW,298,0.0,0.0,93,0.00,,,0.00,,2013-04-29 06:21:00,
2013-04-29 02:32:00,54.0,52.0,29.85,WNW,298,0.0,0.0,93,0.00,,,0.00,,2013-04-29 06:32:00,
2013-04-29 02:42:00,54.0,52.0,29.85,WNW,298,0.0,0.0,93,0.00,,,0.00,,2013-04-29 06:42:00,
2013-04-29 02:52:00,53.0,51.0,29.85,WNW,298,0.0,0.0,93,0.00,,,0.00,,2013-04-29 06:52:00,
2013-04-29 03:01:00,53.0,51.0,29.85,WNW,298,0.0,1.0,94,0.00,,,0.00,,2013-04-29 07:01:00,
2013-04-29 03:11:00,53.0,51.0,29.85,WNW,298,0.0,1.0,94,0.00,,,0.00,,2013-04-29 07:11:00,
2013-04-29 03:21:00,52.0,50.0,29.84,WNW,298,0.0,1.0,94,0.00,,,0.00,,2013-04-29 07:21:00,
2013-04-29 03:32:00,52.0,50.0,29.84,WNW,298,0.0,0.0,94,0.00,,,0.00,,2013-04-29 07:32:00,
2013-04-29 03:41:00,52.0,50.0,29.84,WNW,298,0.0,0.0,94,0.00,,,0.00,,2013-04-29 07:41:00,
2013-04-29 03:52:00,51.0,50.0,29.84,WNW,298,0.0,0.0,95,0.00,,,0.00,,2013-04-29 07:52:00,
2013-04-29 04:03:00,50.0,48.0,29.85,WNW,298,0.0,0.0,94,0.00,,,0.00,,2013-04-29 08:03:00,
2013-04-29 04:11:00,50.0,48.0,29.85,WNW,298,0.0,0.0,94,0.00,,,0.00,,2013-04-29 08:11:00,
2013-04-29 04:21:00,50.0,49.0,29.85,WNW,298,0.0,0.0,95,0.00,,,0.00,,2013-04-29 08:21:00,
2013-04-29 04:32:00,51.0,50.0,29.85,WNW,292,0.0,1.0,96,0.00,,,0.00,,2013-04-29 08:32:00,
2013-04-29 04:42:00,51.0,50.0,29.85,WNW,292,0.0,1.0,96,0.00,,,0.00,,2013-04-29 08:42:00,
2013-04-29 04:51:00,52.0,51.0,29.85,WNW,292,0.0,1.0,96,0.00,,,0.00,,2013-04-29 08:51:00,
2013-04-29 05:01:00,52.0,51.0,29.85,West,275,0.0,3.0,96,0.00,,,0.00,,2013-04-29 09:01:00,
2013-04-29 05:12:00,52.0,51.0,29.85,West,275,0.0,3.0,96,0.00,,,0.00,,2013-04-29 09:12:00,
2013-04-29 05:21:00,51.0,50.0,29.85,WSW,258,0.0,2.0,96,0.00,,,0.00,,2013-04-29 09:21:00,
2013-04-29 05:33:00,51.0,50.0,29.85,WSW,258,0.0,2.0,96,0.00,,,0.00,,2013-04-29 09:33:00,
2013-04-29 05:42:00,51.0,50.0,29.85,WSW,258,0.0,2.0,96,0.00,,,0.00,,2013-04-29 09:42:00,
2013-04-29 05:52:00,51.0,50.0,29.86,WSW,258,0.0,1.0,96,0.00,,,0.00,,2013-04-29 09:52:00,
2013-04-29 06:02:00,51.0,50.0,29.86,WSW,250,0.0,2.0,96,0.00,,,0.00,,2013-04-29 10:02:00,
2013-04-29 06:12:00,51.0,50.0,29.86,WSW,250,0.0,2.0,96,0.00,,,0.00,,2013-04-29 10:12:00,
2013-04-29 06:23:00,52.0,51.0,29.87,WSW,250,0.0,2.0,97,0.00,,,0.00,,2013-04-29 10:23:00,
2013-04-29 06:32:00,52.0,51.0,29.87,WSW,250,0.0,2.0,96,0.00,,,0.00,,2013-04-29 10:32:00,
2013-04-29 06:42:00,52.0,51.0,29.87,WSW,250,0.0,2.0,96,0.00,,,0.00,,2013-04-29 10:42:00,
2013-04-29 06:52:00,52.0,51.0,29.88,WSW,250,0.0,2.0,97,0.00,,,0.00,,2013-04-29 10:52:00,
2013-04-29 07:02:00,52.0,51.0,29.88,WSW,246,1.0,3.0,97,0.00,,,0.00,,2013-04-29 11:02:00,
2013-04-29 07:12:00,52.0,51.0,29.88,WSW,246,1.0,3.0,97,0.00,,,0.00,,2013-04-29 11:12:00,
2013-04-29 07:21:00,53.0,52.0,29.89,WSW,246,0.0,3.0,97,0.00,,,0.00,,2013-04-29 11:21:00,
2013-04-29 07:32:00,53.0,52.0,29.89,WSW,246,1.0,3.0,97,0.00,,,0.00,,2013-04-29 11:32:00,
2013-04-29 07:42:00,53.0,52.0,29.89,WSW,246,1.0,3.0,97,0.00,,,0.00,,2013-04-29 11:42:00,
2013-04-29 07:52:00,53.0,52.0,29.90,WSW,237,0.0,4.0,97,0.00,,,0.00,,2013-04-29 11:52:00,
2013-04-29 08:01:00,53.0,52.0,29.90,WSW,247,1.0,4.0,97,0.00,,,0.00,,2013-04-29 12:01:00,
2013-04-29 08:12:00,53.0,52.0,29.90,WSW,247,1.0,4.0,97,0.00,,,0.00,,2013-04-29 12:12:00,
2013-04-29 08:22:00,53.0,52.0,29.91,WSW,239,1.0,5.0,97,0.00,,,0.00,,2013-04-29 12:22:00,
2013-04-29 08:32:00,53.0,52.0,29.91,WSW,244,0.0,3.0,97,0.00,,,0.00,,2013-04-29 12:32:00,
2013-04-29 08:42:00,53.0,52.0,29.91,WSW,244,0.0,3.0,97,0.00,,,0.00,,2013-04-29 12:42:00,
2013-04-29 08:52:00,53.0,52.0,29.91,WSW,249,0.0,3.0,97,0.00,,,0.00,,2013-04-29 12:52:00,
2013-04-29 09:01:00,53.0,52.0,29.91,WSW,249,0.0,3.0,97,0.00,,,0.00,,2013-04-29 13:01:00,
2013-04-29 09:11:00,53.0,52.0,29.91,WSW,249,0.0,3.0,97,0.00,,,0.00,,2013-04-29 13:11:00,
2013-04-29 09:21:00,54.0,53.0,29.92,WSW,257,1.0,3.0,97,0.00,,,0.00,,2013-04-29 13:21:00,
2013-04-29 09:32:00,55.0,54.0,29.92,West,263,1.0,3.0,97,0.00,,,0.00,,2013-04-29 13:32:00,
2013-04-29 09:42:00,55.0,54.0,29.92,West,263,1.0,3.0,97,0.00,,,0.00,,2013-04-29 13:42:00,
2013-04-29 09:52:00,57.0,56.0,29.93,West,279,0.0,3.0,97,0.00,,,0.00,,2013-04-29 13:52:00,
2013-04-29 10:02:00,58.0,56.0,29.92,NNW,336,0.0,6.0,94,0.00,,,0.00,,2013-04-29 14:02:00,
2013-04-29 10:11:00,58.0,56.0,29.92,NNW,336,0.0,6.0,94,0.00,,,0.00,,2013-04-29 14:11:00,
2013-04-29 10:21:00,59.0,56.0,29.91,SW,232,0.0,3.0,90,0.00,,,0.00,,2013-04-29 14:21:00,
2013-04-29 10:32:00,62.0,56.0,29.91,WSW,248,0.0,4.0,82,0.00,,,0.00,,2013-04-29 14:32:00,
2013-04-29 10:42:00,62.0,56.0,29.91,WSW,248,0.0,4.0,82,0.00,,,0.00,,2013-04-29 14:42:00,
2013-04-29 10:52:00,63.0,57.0,29.91,WSW,238,1.0,4.0,80,0.00,,,0.00,,2013-04-29 14:52:00,
2013-04-29 11:01:00,64.0,57.0,29.91,WSW,244,1.0,4.0,79,0.00,,,0.00,,2013-04-29 15:01:00,
2013-04-29 11:12:00,64.0,57.0,29.91,WSW,244,1.0,4.0,79,0.00,,,0.00,,2013-04-29 15:12:00,
2013-04-29 11:21:00,64.0,57.0,29.91,SW,235,2.0,5.0,77,0.00,,,0.00,,2013-04-29 15:21:00,
2013-04-29 11:33:00,65.0,58.0,29.91,SW,221,0.0,6.0,77,0.00,,,0.00,,2013-04-29 15:33:00,
2013-04-29 11:42:00,65.0,58.0,29.91,SW,221,0.0,6.0,77,0.00,,,0.00,,2013-04-29 15:42:00,
2013-04-29 11:53:00,66.0,58.0,29.91,SW,218,0.0,4.0,76,0.00,,,0.00,,2013-04-29 15:53:00,
2013-04-29 12:02:00,68.0,58.0,29.91,WSW,247,1.0,5.0,70,0.00,,,0.00,,2013-04-29 16:02:00,
2013-04-29 12:12:00,68.0,58.0,29.91,WSW,247,1.0,5.0,70,0.00,,,0.00,,2013-04-29 16:12:00,
2013-04-29 12:23:00,69.0,58.0,29.91,WSW,252,2.0,5.0,69,0.00,,,0.00,,2013-04-29 16:23:00,
2013-04-29 12:33:00,69.0,57.0,29.90,WSW,243,0.0,6.0,66,0.00,,,0.00,,2013-04-29 16:33:00,
2013-04-29 12:42:00,69.0,57.0,29.90,WSW,243,0.0,6.0,66,0.00,,,0.00,,2013-04-29 16:42:00,
2013-04-29 12:52:00,68.0,55.0,29.90,WSW,252,2.0,5.0,64,0.00,,,0.00,,2013-04-29 16:52:00,
2013-04-29 13:02:00,68.0,55.0,29.90,WSW,245,3.0,7.0,64,0.00,,,0.00,,2013-04-29 17:02:00,
2013-04-29 13:12:00,68.0,55.0,29.90,WSW,245,3.0,7.0,64,0.00,,,0.00,,2013-04-29 17:12:00,
2013-04-29 13:22:00,68.0,56.0,29.89,SW,234,1.0,7.0,66,0.00,,,0.00,,2013-04-29 17:22:00,
2013-04-29 13:32:00,69.0,55.0,29.89,SW,234,3.0,6.0,61,0.00,,,0.00,,2013-04-29 17:32:00,
2013-04-29 13:42:00,69.0,55.0,29.89,SW,234,3.0,6.0,61,0.00,,,0.00,,2013-04-29 17:42:00,
2013-04-29 13:52:00,68.0,54.0,29.88,SW,223,3.0,8.0,62,0.00,,,0.00,,2013-04-29 17:52:00,
2013-04-29 14:01:00,69.0,55.0,29.88,SW,229,3.0,8.0,62,0.00,,,0.00,,2013-04-29 18:01:00,
2013-04-29 14:13:00,69.0,55.0,29.88,SW,229,3.0,8.0,62,0.00,,,0.00,,2013-04-29 18:13:00,
2013-04-29 14:22:00,69.0,55.0,29.88,SW,232,4.0,7.0,61,0.00,,,0.00,,2013-04-29 18:22:00,
2013-04-29 14:32:00,69.0,55.0,29.88,SW,235,3.0,7.0,61,0.00,,,0.00,,2013-04-29 18:32:00,
2013-04-29 14:42:00,69.0,55.0,29.88,SW,235,3.0,7.0,61,0.00,,,0.00,,2013-04-29 18:42:00,
2013-04-29 14:52:00,70.0,55.0,29.88,SW,219,3.0,8.0,60,0.00,,,0.00,,2013-04-29 18:52:00,
2013-04-29 15:01:00,69.0,55.0,29.88,SW,215,3.0,8.0,62,0.00,,,0.00,,2013-04-29 19:01:00,
2013-04-29 15:11:00,69.0,55.0,29.88,SW,215,3.0,8.0,62,0.00,,,0.00,,2013-04-29 19:11:00,
2013-04-29 15:21:00,69.0,56.0,29.87,SSW,198,3.0,9.0,63,0.00,,,0.00,,2013-04-29 19:21:00,
2013-04-29 15:31:00,70.0,56.0,29.87,SE,128,3.0,8.0,62,0.00,,,0.00,,2013-04-29 19:31:00,
2013-04-29 15:41:00,70.0,56.0,29.87,SE,128,3.0,8.0,62,0.00,,,0.00,,2013-04-29 19:41:00,
2013-04-29 15:52:00,69.0,55.0,29.87,SW,219,4.0,8.0,61,0.00,,,0.00,,2013-04-29 19:52:00,
2013-04-29 16:02:00,69.0,56.0,29.86,South,177,3.0,7.0,64,0.00,,,0.00,,2013-04-29 20:02:00,
2013-04-29 16:11:00,69.0,56.0,29.86,South,177,3.0,7.0,64,0.00,,,0.00,,2013-04-29 20:11:00,
2013-04-29 16:21:00,69.0,56.0,29.86,South,171,4.0,10.0,63,0.00,,,0.00,,2013-04-29 20:21:00,
2013-04-29 16:32:00,70.0,57.0,29.85,South,171,2.0,7.0,63,0.00,,,0.00,,2013-04-29 20:32:00,
2013-04-29 16:42:00,70.0,57.0,29.85,South,171,2.0,7.0,63,0.00,,,0.00,,2013-04-29 20:42:00,
2013-04-29 16:52:00,70.0,56.0,29.85,SE,142,4.0,8.0,61,0.00,,,0.00,,2013-04-29 20:52:00,
2013-04-29 17:01:00,70.0,55.0,29.85,SSW,198,2.0,6.0,60,0.00,,,0.00,,2013-04-29 21:01:00,
2013-04-29 17:11:00,70.0,55.0,29.85,SSW,198,2.0,6.0,60,0.00,,,0.00,,2013-04-29 21:11:00,
2013-04-29 17:21:00,70.0,55.0,29.85,SSW,198,2.0,6.0,60,0.00,,,0.00,,2013-04-29 21:21:00,
2013-04-29 17:33:00,71.0,56.0,29.84,NE,54,2.0,11.0,59,0.00,,,0.00,,2013-04-29 21:33:00,
2013-04-29 17:42:00,71.0,56.0,29.84,NE,54,2.0,11.0,59,0.00,,,0.00,,2013-04-29 21:42:00,
2013-04-29 17:53:00,71.0,56.0,29.84,SW,235,4.0,11.0,59,0.00,,,0.00,,2013-04-29 21:53:00,
2013-04-29 18:02:00,70.0,56.0,29.84,SSW,210,4.0,9.0,61,0.00,,,0.00,,2013-04-29 22:02:00,
2013-04-29 18:13:00,70.0,56.0,29.84,SSW,210,4.0,9.0,61,0.00,,,0.00,,2013-04-29 22:13:00,
2013-04-29 18:23:00,70.0,55.0,29.84,ESE,108,3.0,7.0,60,0.00,,,0.00,,2013-04-29 22:23:00,
2013-04-29 18:32:00,69.0,56.0,29.84,South,181,5.0,13.0,63,0.00,,,0.00,,2013-04-29 22:32:00,
2013-04-29 18:42:00,69.0,56.0,29.84,South,181,5.0,13.0,63,0.00,,,0.00,,2013-04-29 22:42:00,
2013-04-29 18:52:00,68.0,54.0,29.84,SSE,164,4.0,10.0,61,0.00,,,0.00,,2013-04-29 22:52:00,
2013-04-29 19:02:00,67.0,55.0,29.84,SE,140,2.0,9.0,65,0.00,,,0.00,,2013-04-29 23:02:00,
2013-04-29 19:11:00,67.0,55.0,29.84,SE,140,2.0,9.0,65,0.00,,,0.00,,2013-04-29 23:11:00,
2013-04-29 19:22:00,68.0,55.0,29.85,SSE,162,2.0,6.0,63,0.00,,,0.00,,2013-04-29 23:22:00,
2013-04-29 19:32:00,67.0,55.0,29.84,SE,137,5.0,7.0,65,0.00,,,0.00,,2013-04-29 23:32:00,
2013-04-29 19:42:00,67.0,55.0,29.84,SE,137,5.0,7.0,65,0.00,,,0.00,,2013-04-29 23:42:00,
2013-04-29 19:52:00,67.0,56.0,29.83,ESE,120,5.0,10.0,67,0.00,,,0.00,,2013-04-29 23:52:00,
2013-04-29 20:01:00,66.0,56.0,29.84,SE,146,2.0,7.0,69,0.00,,,0.00,,2013-04-30 00:01:00,
2013-04-29 20:11:00,66.0,56.0,29.84,SE,146,2.0,7.0,69,0.00,,,0.00,,2013-04-30 00:11:00,
2013-04-29 20:21:00,65.0,55.0,29.83,SE,126,3.0,5.0,71,0.00,,,0.00,,2013-04-30 00:21:00,
2013-04-29 20:32:00,65.0,55.0,29.83,ESE,123,4.0,8.0,71,0.00,,,0.00,,2013-04-30 00:32:00,
2013-04-29 20:41:00,65.0,55.0,29.83,ESE,123,4.0,8.0,71,0.00,,,0.00,,2013-04-30 00:41:00,
2013-04-29 20:52:00,64.0,55.0,29.85,SE,135,2.0,5.0,73,0.00,,,0.00,,2013-04-30 00:52:00,
2013-04-29 21:02:00,63.0,55.0,29.84,ESE,113,1.0,4.0,75,0.00,,,0.00,,2013-04-30 01:02:00,
2013-04-29 21:11:00,63.0,55.0,29.84,ESE,113,1.0,4.0,75,0.00,,,0.00,,2013-04-30 01:11:00,
2013-04-29 21:21:00,62.0,55.0,29.85,SE,138,2.0,7.0,77,0.00,,,0.00,,2013-04-30 01:21:00,
2013-04-29 21:32:00,62.0,55.0,29.85,SE,135,2.0,7.0,78,0.00,,,0.00,,2013-04-30 01:32:00,
2013-04-29 21:41:00,62.0,55.0,29.85,SE,135,2.0,7.0,78,0.00,,,0.00,,2013-04-30 01:41:00,
2013-04-29 21:52:00,61.0,54.0,29.85,ESE,102,3.0,5.0,78,0.00,,,0.00,,2013-04-30 01:52:00,
2013-04-29 22:01:00,62.0,55.0,29.85,South,173,3.0,7.0,78,0.00,,,0.00,,2013-04-30 02:01:00,
2013-04-29 22:11:00,62.0,55.0,29.85,South,173,3.0,7.0,78,0.00,,,0.00,,2013-04-30 02:11:00,
2013-04-29 22:21:00,62.0,55.0,29.86,ESE,117,4.0,10.0,77,0.00,,,0.00,,2013-04-30 02:21:00,
2013-04-29 22:31:00,62.0,55.0,29.87,SE,138,3.0,7.0,78,0.00,,,0.00,,2013-04-30 02:31:00,
2013-04-29 22:41:00,62.0,55.0,29.87,SE,138,3.0,7.0,78,0.00,,,0.00,,2013-04-30 02:41:00,
2013-04-29 22:51:00,61.0,54.0,29.86,East,98,4.0,7.0,79,0.00,,,0.00,,2013-04-30 02:51:00,
2013-04-29 23:01:00,61.0,54.0,29.86,ESE,103,5.0,9.0,78,0.00,,,0.00,,2013-04-30 03:01:00,
2013-04-29 23:11:00,61.0,54.0,29.86,ESE,103,5.0,9.0,78,0.00,,,0.00,,2013-04-30 03:11:00,
2013-04-29 23:21:00,60.0,54.0,29.85,ESE,115,3.0,8.0,80,0.00,,,0.00,,2013-04-30 03:21:00,
2013-04-29 23:33:00,60.0,54.0,29.85,East,84,4.0,7.0,81,0.00,,,0.00,,2013-04-30 03:33:00,
2013-04-29 23:42:00,60.0,54.0,29.85,East,84,4.0,7.0,81,0.00,,,0.00,,2013-04-30 03:42:00,
2013-04-29 23:52:00,60.0,54.0,29.85,ESE,112,3.0,5.0,80,0.00,,,0.00,,2013-04-30 03:52:00,